Regional Weather Roundup
Issued by NWS

Home | Current Version | Previous Version | Graphics & Text | Print | Product List | Glossary On
Versions: 1 2 3 4 5 6 7 8 9 10 11 12 13 14 15 16 17 18 19 20 21 22 23 24 25 26 27 28 29 30 31 32 33 34 35 36 37 38 39 40 41 42 43 44 45 46 47 48 49 50
000
ASUS45 KCYS 010710
RWRWY

WYOMING REGIONAL WEATHER ROUNDUP
NATIONAL WEATHER SERVICE CHEYENNE WY
1200 AM MST SUN MAR 01 2015

NOTE:  "FAIR" INDICATES FEW OR NO CLOUDS BELOW 12,000 FEET
WITH NO SIGNIFICANT WEATHER AND/OR OBSTRUCTIONS TO VISIBILITY.

WYZ001-010800-
YELLOWSTONE NATIONAL PARK

CITY           SKY/WX    TMP DP  RH WIND       PRES   REMARKS
LK YELLOWSTONE   N/A     -6 -10  83 CALM      29.99R
W YELLOWSTONE  NOT AVBL

$$
WYZ002>013-054>058-071-098>099-010800-
NORTHERN WYOMING

CITY           SKY/WX    TMP DP  RH WIND       PRES   REMARKS
JACKSON        FAIR      10   3  72 N12       29.97R WCI  -4
CODY           FAIR      10   9  92 SW3       30.11R
GREYBULL       CLOUDY    17   8  67 W10       30.16R WCI   5
WORLAND        CLOUDY    22  12  65 NW6       30.14R WCI  14
SHERIDAN       FAIR       5  -2  72 CALM      30.15R
BUFFALO        FAIR       7   1  76 W7        30.09F WCI  -5
GILLETTE       CLOUDY    11   8  88 SW5       30.12F WCI   3
HULETT         FAIR      14   9  79 SW7       30.13S WCI   4
NEWCASTLE      FAIR      14   9  79 N7        30.14S WCI   4

$$
WYZ014>020-022>026-101>103-010800-
CENTRAL WYOMING

CITY           SKY/WX    TMP DP  RH WIND       PRES   REMARKS
BIG PINEY      CLOUDY    16   8  71 S6        29.97R WCI   7
PINEDALE       CLOUDY     9   5  85 NW5       29.98R WCI   0
DUBOIS         CLOUDY    12   9  85 S5        29.97R WCI   4
LANDER         LGT SNOW  16  12  84 SW3       30.07R FOG
RIVERTON       CLOUDY    16  10  77 SE5       30.08S WCI   9
CASPER         CLOUDY    14  10  84 N6        30.07R WCI   5
DOUGLAS        CLOUDY    18  13  80 N3        30.09S

$$
WYZ021-027>030-104>119-010800-
SOUTHERN WYOMING

CITY           SKY/WX    TMP DP  RH WIND       PRES   REMARKS
EVANSTON       CLOUDY    21  17  84 E9        29.92R WCI  11
FORT BRIDGER   CLOUDY    19  19  99 E6        29.97R WCI  11
ROCK SPRINGS   CLOUDY    13   8  81 NE12      29.97R WCI  -1
DIXON          LGT SNOW  24  21  89 CALM      29.95R
RAWLINS        LGT SNOW  15  10  80 NE8       29.96R WCI   4
SARATOGA       LGT SNOW  14  12  92 W8        29.93R WCI   3
LARAMIE        LGT SNOW  15  11  83 SE9       29.89R FOG     WCI   3
CHEYENNE       LGT SNOW  16  12  84 CALM      29.96F FOG
TORRINGTON     CLOUDY    23  13  65 NE9       30.09R WCI  13
PINE BLUFFS    CLOUDY    21  16  79 CALM      30.03S

$$


USA.gov is the U.S. government's official web portal to all federal, state and local government web resources and services.